Wind_Speed
11 12 13 14 16 17 18 19 20 21 23 24 26 28 29 30 32 35 34 34 35 37 44 49 49 58 52 48 46 43 48 48 43 40 39 40 44 45 48 47 42 42 42 40 35
14 15 16 17 18 18 19 20 21 22 23 24 25 26 27 28 30 34 35 36 39 40 44 45 48 51 56 56 55 52 51 51 42 46 41 41 47 49 50 49 48 47 44 41 40
16 16 17 19 20 20 21 22 23 24 25 26 27 27 28 29 31 31 31 32 35 38 42 44 45 47 53 56 60 58 61 47 46 48 49 45 50 51 51 53 53 47 48 48 43
18 19 19 20 22 22 22 23 23 24 25 26 28 29 31 31 32 33 34 35 37 37 39 41 44 47 47 52 56 63 58 60 56 54 50 49 47 53 58 58 54 59 54 50 45
18 19 19 19 19 20 21 22 23 23 24 25 25 26 28 31 33 34 35 37 38 40 41 42 42 44 47 49 53 58 57 65 61 61 54 50 54 53 57 57 59 60 59 53 50
16 16 16 18 19 20 21 22 24 26 27 29 31 31 32 33 33 34 35 36 38 40 41 43 45 48 48 49 52 51 56 62 68 67 62 59 54 58 58 55 58 63 60 56 54
16 18 19 20 22 24 26 27 28 29 31 31 32 33 34 36 36 38 39 40 42 44 44 45 47 49 51 53 52 53 58 58 61 65 66 68 67 69 56 60 62 60 58 58 55
18 19 21 22 23 25 27 28 28 29 29 30 31 31 33 35 37 39 40 43 44 46 48 49 51 52 52 54 56 58 60 61 57 59 58 70 74 64 63 61 66 61 59 61 58
15 16 19 21 21 22 23 24 25 25 26 27 28 31 33 36 38 41 44 46 48 49 50 52 53 53 56 59 61 60 62 62 58 57 62 69 64 60 64 72 72 67 66 65 63
16 16 17 18 20 21 22 23 23 25 26 28 30 32 32 36 38 41 44 46 49 51 53 54 56 58 62 65 62 62 64 62 65 60 66 68 62 57 64 77 70 66 64 67 64
18 18 17 16 16 19 20 22 25 27 29 30 32 35 36 38 42 44 46 48 49 51 53 55 56 60 65 65 67 69 70 70 68 66 71 69 63 57 59 62 68 72 68 66 65
19 18 18 18 18 20 21 24 26 27 29 31 33 35 38 41 41 44 45 45 46 47 49 49 53 57 62 68 71 71 75 74 74 73 70 70 69 62 59 61 61 63 62 66 68
21 21 20 20 21 21 23 24 26 28 30 31 34 37 39 41 42 43 44 44 44 45 46 48 47 53 55 60 66 74 77 72 77 79 73 73 72 68 62 60 59 60 58 56 59
21 21 22 22 23 24 26 27 29 32 31 34 33 35 38 40 43 43 44 44 44 44 42 44 38 42 45 52 54 65 70 74 77 79 80 74 75 71 64 62 58 54 54 53 49
22 24 25 24 25 27 28 29 31 32 35 32 38 38 41 43 44 44 46 48 46 41 38 31 35 34 36 37 39 44 54 63 64 77 80 78 79 70 67 63 57 51 46 43 43
23 26 27 28 27 28 29 30 32 33 35 37 37 38 41 43 45 48 49 47 44 35 29 28 24 27 28 30 29 28 33 39 40 46 59 78 64 71 65 58 52 46 42 37 40
25 27 29 29 30 30 30 32 33 33 35 37 37 39 40 43 44 47 42 36 31 22 17 17 19 23 25 24 21 19 23 26 38 48 57 70 52 69 63 52 49 45 41 38 38
26 29 31 30 30 32 32 33 32 32 33 36 38 37 38 41 42 37 33 24 22 16 17 19 15 14 15 18 22 25 20 26 30 36 44 50 45 66 57 43 50 46 40 39 36
29 30 32 32 32 33 33 34 35 33 34 36 35 35 37 41 33 22 18 17 16 14 15 17 21 13 15 17 19 24 29 23 28 27 33 38 42 59 58 53 38 32 42 40 38
33 33 31 30 32 32 32 33 35 33 34 35 36 35 37 26 16 17 15 17 12 15 16 17 16 11 16 15 13 22 27 27 26 31 21 30 34 56 53 48 43 33 34 41 43
31 33 33 29 31 31 31 32 33 34 35 34 34 36 25 13 15 17 16 18 12 14 13 16 16 12 13 15 19 19 21 19 19 25 15 21 31 38 48 47 42 38 33 32 26
32 32 33 28 30 30 30 31 31 33 33 33 32 28 15 14 13 19 21 24 19 13 11 13 15 13 14 15 15 10 19 25 22 23 25 20 18 37 54 46 49 39 32 25 19
29 30 32 28 29 30 30 30 30 32 32 30 31 20 13 16 19 20 25 28 18 14 14 14 13 13 11 12 15 9 7 9 26 29 33 19 12 30 40 49 46 50 46 39 33
29 29 28 26 28 29 29 30 30 31 29 27 26 11 10 14 19 22 23 26 20 14 17 19 16 16 16 19 18 14 11 16 16 26 30 33 29 28 37 43 39 36 39 39 38
28 26 27 28 28 30 28 29 28 28 25 25 19 10 12 16 17 21 24 21 23 22 9 18 19 19 17 18 21 20 18 16 21 23 29 35 37 30 46 48 46 42 41 41 34
25 23 28 30 29 31 29 29 27 27 24 22 14 10 16 18 21 20 22 20 18 18 14 14 13 20 19 19 22 18 22 24 25 22 26 34 49 51 54 50 50 49 44 39 38
31 31 29 32 32 31 27 26 26 21 24 19 9 12 14 16 16 20 27 23 18 13 21 14 8 7 12 15 19 14 13 21 28 25 24 32 44 46 49 56 57 50 44 40 36
Wind_Direction
264 260 260 259 259 260 260 258 259 261 264 263 261 260 257 255 252 251 253 248 246 247 247 247 246 236 242 238 233 236 232 227 222 225 222 224 222 225 231 235 235 236 240 250 254
276 272 268 264 264 263 263 264 265 266 264 263 261 259 259 258 257 257 255 251 249 248 245 249 247 247 246 250 242 236 234 227 229 231 230 229 225 228 229 232 237 239 247 248 252
276 273 274 272 269 265 263 262 262 262 262 262 262 261 261 261 260 259 259 257 255 253 250 249 251 248 248 248 242 242 239 236 231 233 233 231 228 234 234 236 236 239 245 245 247
277 276 273 269 270 270 270 269 267 264 262 261 260 259 259 259 262 259 258 257 254 251 250 251 251 252 250 249 246 245 239 238 237 238 233 233 229 228 233 237 238 241 249 246 247
283 281 280 278 277 276 274 273 271 271 270 268 265 262 259 256 254 254 256 256 255 255 254 253 251 251 251 250 249 247 244 243 242 245 236 235 234 228 233 237 241 244 242 242 248
296 290 284 282 281 277 273 272 273 272 270 270 272 272 269 268 266 261 257 255 255 255 254 253 253 252 250 250 250 248 248 247 244 246 244 239 229 236 227 232 240 242 242 246 248
288 285 282 281 280 278 276 273 270 267 268 269 270 271 270 269 268 269 266 261 255 253 253 252 252 251 253 252 250 248 248 247 245 248 246 244 230 229 226 232 232 237 243 247 249
293 288 284 281 280 280 280 279 276 275 273 273 275 277 278 276 272 269 266 265 264 261 256 252 251 251 252 252 252 250 247 248 245 249 249 245 241 232 229 230 232 234 238 244 246
314 307 301 298 297 294 293 292 290 290 289 286 284 282 280 277 274 272 270 267 265 263 262 261 260 255 251 251 250 250 250 249 246 248 246 246 246 239 233 232 235 231 233 239 243
333 323 312 307 305 302 300 298 295 292 291 290 288 286 284 283 280 276 273 270 267 265 262 260 258 258 257 253 251 253 252 249 247 244 247 249 243 242 240 235 236 237 237 238 241
345 339 326 322 319 315 312 306 303 300 298 296 293 289 288 287 285 281 279 275 272 268 264 261 258 256 251 251 252 249 249 248 245 244 245 248 245 240 242 241 241 242 242 241 242
341 339 336 335 330 325 320 314 310 306 302 299 295 292 293 292 289 287 286 284 281 278 273 268 266 266 259 253 249 246 245 246 246 245 245 246 244 240 240 239 241 242 243 241 242
346 344 342 336 330 326 321 317 315 311 309 305 302 299 298 297 298 298 296 293 293 291 287 284 282 276 267 258 250 246 243 239 241 241 240 242 243 242 239 241 240 241 244 247 248
347 343 338 336 335 330 328 323 319 317 313 312 307 307 305 305 303 302 299 299 300 296 289 286 281 270 265 264 258 248 240 235 232 234 239 239 242 241 238 239 240 240 242 245 249
344 347 345 341 340 337 334 329 324 323 322 319 317 315 313 311 308 310 307 304 303 299 290 283 275 266 262 269 266 259 243 234 234 231 231 233 237 235 237 236 240 242 244 244 245
339 341 342 343 340 338 337 332 329 327 328 325 321 318 316 314 312 311 310 306 304 296 287 275 263 267 273 272 272 253 243 234 232 223 228 227 233 231 236 236 239 242 239 237 236
337 338 338 337 339 337 338 335 332 333 327 325 322 319 316 313 311 312 308 306 298 298 280 262 247 265 265 276 249 254 243 238 233 231 231 223 229 227 230 231 233 233 233 229 230
333 334 337 336 336 336 337 334 333 331 328 324 322 320 315 313 316 312 304 303 299 294 267 241 256 258 268 259 250 246 244 233 233 237 240 231 225 223 224 232 231 229 227 227 226
329 329 331 336 334 334 334 333 331 332 329 327 323 321 321 324 323 326 320 309 290 295 269 262 268 296 250 257 255 245 224 233 231 240 225 231 234 215 218 218 222 227 227 224 223
324 327 327 334 333 331 332 332 328 332 330 328 326 329 329 329 339 343 342 332 312 304 282 269 281 280 253 264 261 230 211 227 217 229 232 219 219 208 216 218 212 225 223 220 220
317 321 326 332 332 330 331 332 331 332 334 331 331 332 334 349 328 334 332 330 310 295 295 279 276 278 259 282 257 224 216 220 214 206 214 216 212 212 207 219 200 197 197 201 207
316 318 323 329 331 328 329 332 333 335 336 335 336 338 341 344 338 330 320 318 316 286 288 276 270 269 272 277 258 282 217 224 212 197 199 186 182 218 207 205 198 206 186 193 201
319 319 319 325 331 328 330 333 337 338 338 339 341 345 351 336 342 339 329 333 312 291 271 272 268 258 266 280 281 282 259 228 200 202 207 208 180 201 205 207 206 212 216 220 217
319 320 318 322 334 330 333 335 340 340 340 340 344 4 1 344 342 339 340 339 321 319 281 263 258 256 250 238 264 259 247 245 227 220 204 205 184 186 186 199 196 199 195 202 198
328 322 324 326 335 333 334 334 343 339 341 339 341 357 332 339 349 338 344 343 332 300 310 274 254 251 250 249 253 248 247 246 242 236 229 209 207 199 185 184 181 189 179 183 184
343 339 334 328 334 334 334 334 343 341 340 339 338 341 337 337 344 349 343 337 343 316 310 323 286 257 253 259 248 247 240 243 245 242 236 219 187 181 179 181 181 179 173 178 175
346 341 338 329 335 332 332 331 338 345 334 348 329 334 332 339 347 352 349 346 342 338 308 333 345 269 256 264 253 260 249 253 246 242 237 215 174 178 182 178 179 180 174 176 175
Height
5775 5775 5775 5775 5776 5776 5777 5777 5778 5779 5780 5781 5781 5783 5785 5786 5788 5792 5792 5795 5796 5801 5803 5805 5807 5809 5811 5814 5819 5822 5823 5829 5836 5841 5846 5846 5847 5847 5847 5850 5855 5856 5857 5859 5863
5771 5771 5771 5771 5771 5772 5772 5773 5773 5774 5774 5774 5776 5776 5778 5779 5780 5782 5785 5787 5789 5792 5794 5796 5798 5800 5803 5806 5809 5812 5815 5823 5833 5830 5835 5837 5840 5840 5842 5845 5848 5849 5851 5855 5858
5767 5767 5767 5767 5767 5767 5767 5768 5769 5769 5769 5769 5770 5771 5772 5773 5774 5776 5776 5778 5780 5782 5784 5786 5788 5790 5792 5795 5800 5804 5806 5820 5823 5820 5821 5827 5832 5833 5836 5837 5841 5844 5844 5847 5851
5764 5763 5763 5762 5762 5762 5762 5762 5762 5762 5762 5763 5763 5765 5765 5766 5767 5767 5767 5769 5770 5772 5774 5777 5777 5779 5781 5785 5788 5789 5800 5805 5813 5807 5812 5817 5822 5824 5824 5829 5834 5832 5837 5840 5843
5759 5759 5758 5757 5757 5756 5756 5755 5755 5755 5755 5755 5755 5757 5757 5758 5760 5759 5759 5760 5762 5764 5765 5766 5767 5768 5771 5775 5775 5780 5789 5790 5794 5794 5801 5805 5811 5815 5817 5823 5824 5825 5826 5831 5836
5755 5754 5753 5753 5752 5751 5751 5750 5749 5749 5749 5748 5747 5747 5748 5748 5749 5750 5750 5751 5752 5753 5755 5755 5757 5757 5759 5762 5765 5772 5771 5775 5779 5781 5788 5793 5801 5799 5810 5815 5816 5814 5819 5824 5827
5751 5750 5749 5748 5747 5746 5745 5744 5744 5743 5742 5741 5740 5739 5740 5739 5738 5737 5737 5738 5740 5741 5742 5743 5744 5746 5747 5750 5753 5755 5755 5759 5764 5771 5776 5777 5780 5787 5806 5807 5804 5809 5813 5816 5821
5748 5746 5744 5743 5742 5740 5738 5737 5736 5735 5734 5734 5733 5732 5730 5729 5728 5728 5727 5727 5726 5727 5729 5730 5731 5734 5735 5737 5739 5741 5741 5744 5761 5757 5764 5755 5763 5785 5794 5796 5795 5802 5806 5808 5812
5743 5741 5738 5736 5735 5733 5731 5730 5728 5727 5726 5725 5724 5722 5721 5720 5718 5717 5715 5715 5714 5715 5715 5716 5718 5722 5723 5722 5723 5727 5731 5735 5745 5748 5744 5736 5755 5773 5782 5779 5778 5789 5795 5798 5803
5739 5736 5733 5731 5729 5726 5725 5723 5721 5720 5719 5716 5715 5714 5712 5708 5706 5704 5703 5702 5701 5700 5701 5703 5705 5705 5704 5703 5710 5716 5716 5720 5722 5732 5724 5725 5743 5758 5761 5762 5769 5776 5784 5787 5792
5736 5733 5729 5727 5724 5722 5720 5718 5716 5714 5709 5708 5706 5703 5700 5697 5693 5691 5689 5686 5685 5685 5685 5687 5690 5687 5684 5684 5694 5694 5696 5701 5709 5711 5709 5716 5729 5741 5743 5748 5758 5763 5770 5775 5779
5733 5730 5726 5723 5721 5718 5714 5711 5708 5705 5702 5698 5696 5692 5689 5684 5682 5676 5674 5670 5667 5665 5665 5668 5669 5661 5664 5666 5671 5674 5678 5684 5689 5692 5699 5705 5711 5723 5728 5735 5743 5749 5754 5761 5768
5731 5727 5723 5719 5716 5713 5709 5706 5702 5697 5694 5690 5685 5681 5677 5672 5668 5662 5659 5655 5651 5648 5646 5647 5644 5639 5640 5643 5646 5651 5656 5665 5670 5672 5683 5687 5693 5705 5716 5722 5731 5736 5743 5749 5756
5728 5723 5719 5715 5712 5707 5703 5698 5693 5689 5685 5682 5676 5672 5667 5662 5656 5651 5645 5642 5637 5633 5630 5630 5625 5623 5621 5621 5624 5627 5636 5641 5646 5651 5664 5674 5677 5688 5703 5708 5716 5727 5731 5739 5745
5724 5719 5715 5710 5706 5701 5697 5692 5687 5682 5677 5671 5665 5659 5653 5650 5644 5639 5633 5627 5622 5619 5615 5619 5611 5609 5610 5612 5611 5611 5616 5620 5628 5633 5643 5655 5657 5680 5688 5698 5708 5718 5724 5730 5735
5720 5715 5710 5706 5701 5696 5691 5685 5680 5676 5667 5664 5658 5652 5646 5639 5633 5626 5620 5614 5609 5607 5603 5602 5601 5600 5602 5601 5601 5602 5604 5608 5615 5619 5620 5641 5644 5666 5677 5692 5701 5707 5714 5719 5722
5714 5710 5705 5699 5695 5689 5684 5678 5674 5668 5663 5657 5651 5645 5639 5632 5625 5617 5612 5608 5602 5599 5596 5595 5594 5594 5593 5593 5593 5594 5598 5601 5605 5604 5605 5628 5631 5653 5665 5680 5687 5693 5700 5708 5713
5709 5704 5699 5694 5689 5683 5677 5672 5667 5662 5656 5649 5642 5637 5630 5623 5616 5609 5602 5600 5595 5593 5591 5590 5592 5587 5586 5587 5588 5589 5592 5595 5599 5604 5610 5616 5619 5647 5662 5670 5675 5683 5690 5698 5704
5702 5698 5693 5688 5682 5677 5672 5666 5659 5654 5648 5642 5636 5630 5622 5613 5606 5602 5597 5594 5590 5587 5587 5585 5585 5584 5582 5581 5582 5584 5583 5590 5592 5596 5599 5612 5617 5638 5651 5660 5668 5673 5681 5687 5695
5695 5691 5687 5682 5677 5671 5666 5661 5652 5648 5642 5634 5627 5622 5614 5607 5603 5599 5594 5590 5587 5584 5581 5581 5580 5580 5578 5574 5576 5575 5581 5581 5584 5589 5596 5606 5614 5630 5640 5651 5661 5666 5672 5679 5685
5689 5684 5680 5676 5671 5665 5660 5654 5647 5641 5635 5627 5621 5614 5607 5603 5599 5595 5591 5588 5583 5580 5578 5577 5577 5577 5576 5575 5573 5575 5574 5576 5581 5588 5595 5605 5612 5618 5627 5639 5651 5657 5662 5670 5678
5681 5676 5672 5670 5666 5659 5654 5648 5642 5635 5628 5621 5615 5607 5602 5600 5598 5593 5588 5584 5580 5577 5575 5573 5572 5573 5572 5571 5571 5569 5569 5572 5578 5583 5586 5591 5604 5606 5618 5632 5644 5650 5657 5666 5673
5674 5670 5666 5664 5660 5653 5647 5642 5635 5629 5622 5615 5609 5603 5600 5597 5593 5590 5585 5579 5575 5572 5572 5571 5570 5569 5571 5571 5569 5567 5567 5570 5574 5578 5584 5591 5600 5600 5611 5623 5635 5642 5653 5662 5669
5669 5664 5660 5657 5653 5647 5641 5636 5629 5623 5617 5610 5606 5601 5599 5595 5591 5587 5582 5576 5570 5567 5566 5565 5565 5565 5566 5565 5561 5564 5565 5566 5568 5571 5576 5584 5589 5598 5604 5614 5626 5637 5647 5655 5663
5662 5658 5654 5651 5647 5641 5636 5630 5625 5618 5613 5607 5603 5599 5597 5593 5590 5583 5578 5573 5568 5563 5559 5558 5558 5559 5559 5560 5559 5560 5561 5562 5564 5566 5567 5575 5576 5588 5595 5605 5620 5632 5642 5650 5658
5658 5654 5650 5645 5642 5636 5630 5624 5621 5615 5610 5604 5600 5597 5594 5590 5586 5581 5575 5570 5564 5559 5555 5553 5551 5552 5553 5553 5554 5555 5557 5556 5556 5558 5558 5564 5568 5576 5587 5601 5616 5627 5638 5647 5654
5655 5650 5646 5640 5637 5631 5626 5620 5616 5612 5605 5601 5598 5595 5592 5588 5584 5578 5572 5566 5561 5557 5552 5551 5548 5547 5548 5548 5549 5550 5551 5550 5550 5551 5552 5555 5572 5576 5587 5598 5611 5624 5635 5643 5650